{"data":{"norad_id":68907,"epoch":"2026-09-19T07:08:21.511680Z","epoch_age_seconds":119294,"freshness":"FRESH","line1":"1 68907U 26097N   26262.29747120  .00018980  00000+0  58895-3 0  9997","line2":"2 68907  97.2843  96.3962 0001612 100.8318 259.3106 15.33433240 21907","mean_motion":15.3343324,"eccentricity":0.0001612,"inclination_deg":97.2843,"raan_deg":96.3962,"arg_perigee_deg":100.8318,"mean_anomaly_deg":259.3106,"bstar":0.00058895,"rev_number":2190,"period_min":93.906924829672,"perigee_km":464.47495730342,"apogee_km":466.68137107235,"semimajor_km":6843.7151641879,"source":"CELESTRAK","updated_at":"2026-09-20T09:00:44.048422Z"}}